STARLINK-33772

Last updated on Mon May 26 2025 00:02:04 GMT+0000 (Coordinated Universal Time)

1 63656U 25083Y 25145.58335648 .00044619 00000+0 76272-3 0 9993 2 63656 42.9991 193.6968 0001590 272.8350 257.0875 15.50554032 6095
UTC large
Height (km)
Speed (km/s)
/
Latitude / Longitude
Inclination (degrees)
Orbital Period (minutes)
Azimuth
Elevation
Range (km)
Doppler Factor

Next 0 passes for location: London (51.5072 / 0.1276)

Sorry there are no passes over London.